Regional Weather Roundup
Issued by NWS Wakefield, VA

Current Version | Previous Version | Text Only | Print | Product List | Glossary On
Versions: 1 2 3 4 5 6 7 8 9 10 11 12 13 14 15 16 17 18 19 20 21 22 23 24 25 26 27 28 29 30 31 32 33 34 35 36 37 38 39 40 41 42 43 44 45 46 47 48 49 50
975
ASUS41 KAKQ 091814
RWRAKQ

REGIONAL WEATHER ROUNDUP
NATIONAL WEATHER SERVICE WAKEFIELD VA
100 PM EST TUE FEB 09 2016

Note: "fair" indicates few or no clouds below 12,000 feet with no
significant weather and/or obstructions to visibility. * = Denotes
station may not report precipitation (e.g., rain,snow,etc.),
thunder or fog.

VAZ042-051-052>054-056-091900-
NORTHERN VIRGINIA

CITY           SKY/WX    TMP DP  RH WIND       PRES   REMARKS
WASH NATIONAL  LGT RAIN  38  34  85 NW9       29.56F
DULLES         CLOUDY    36  32  85 N9        29.55F FOG
FORT BELVOIR   PTSUNNY   39  34  81 NW8       29.55F
QUANTICO       CLOUDY    40  35  83 NW3       29.57F
FREDERICKSBRG* PTSUNNY   38  37  93 CALM      29.56F
STAFFORD*      LGT RAIN  38  35  86 CALM      29.60F
WARRENTON      DRIZZLE   40  38  92 CALM      29.54F
CULPEPER*      LGT RAIN  38  33  83 W5        29.56F
MANASSAS*      NOT AVBL
LEESBURG*      FLURRIES  36  36 100 CALM      29.56F
WINCHESTER     CLOUDY    37  28  70 W21       29.54F
FRONT ROYAL*   CLOUDY    36  28  75 NW6       29.54F
LURAY*         CLOUDY    36  27  69 CALM      29.55F
$$

VAZ048-049-060>072-079>083-091900-
CENTRAL AND SOUTH CENTRAL VIRGINIA

CITY           SKY/WX    TMP DP  RH WIND       PRES   REMARKS
RICHMOND       PTSUNNY   46  30  53 NW9       29.56F
CHESTERFIELD*  MOCLDY   N/A N/A N/A W9        29.57F
PETERSBURG*    CLOUDY    46  24  42 W7        29.57F
HANOVER        CLOUDY    43  33  68 NW8       29.57F
TAPPAHANNOCK*  CLOUDY    43  35  74 W7        29.56F
QUINTON*       MOCLDY    44  32  62 W13G20    29.55F
CHARLOTTSVILLE PTSUNNY   43  27  53 NW12G17   29.54F
GORDONSVILLE*  CLOUDY    39  30  69 W3        29.55F
ORANGE*        CLOUDY    41  32  70 SW12      29.56F
LOUISA*        CLOUDY    43  32  65 W7        29.54F
BUMPASS*       CLOUDY    40  33  73 W3        29.56F
FARMVILLE*     CLOUDY    43  24  47 SW9       29.56F
CREWE*         CLOUDY    44  28  54 W9        29.56F
FORT PICKETT*  CLOUDY    44  27  52 W7        29.56F
CHASE CITY*    CLOUDY    41  23  48 W7        29.59F
CLARKSVILLE*   CLOUDY    41  25  52 W12G17    29.60F
SOUTH HILL*    CLOUDY    42  26  55 W5        29.64F
LAWRENCEVILLE* CLOUDY    43  27  53 W8        29.57F
EMPORIA*       CLOUDY    45  30  57 SW9       29.59F
$$

VAZ088>098-091900-
SOUTHEAST VIRGINIA

CITY           SKY/WX    TMP DP  RH WIND       PRES   REMARKS
NORFOLK        PTSUNNY   47  28  47 W9G17     29.56F
VIRGINIA BEACH PTSUNNY   50  29  44 W17G23    29.55F
NORFOLK NAVAL  PTSUNNY   48  30  49 W14G20    29.57F
WEST POINT*    CLOUDY    45  33  64 SW9       29.57F
SALUDA*        NOT AVBL
NEWPORT NEWS   FAIR      47  32  56 SW13      29.56F
LANGLEY AFB    PTSUNNY   46  33  61 W10       29.54F
FORT EUSTIS    MOSUNNY   47  35  63 NW10      29.54F
WILLIAMSBURG*  FAIR      52  36  54 W12       29.57F
HR EXEC AP*    MOCLDY    48  32  53 W10G18    29.58F
FRANKLIN*      CLOUDY    45  29  53 W8        29.59F
US460-WAKEFLD  PTSUNNY   47  29  49 SW13G20   29.57F
$$

VAZ020-022-025-037-045-091900-
WEST CENTRAL AND SOUTHWEST VIRGINIA

CITY           SKY/WX    TMP DP  RH WIND       PRES   REMARKS
STAUNTON*      CLOUDY    41  25  52 W6        29.56F
WAYNESBORO*    CLOUDY    35  19  50 W8G17     29.54F
HOT SPRINGS VA LGT SNOW  21  16  79 W18G24    29.44F WCI   6
LYNCHBURG      FAIR      39  20  46 W9        29.59F
DANVILLE       CLOUDY    40  21  46 NW8       29.63F
SOUTH BOSTON*  CLOUDY    40  18  41 W9G17     29.62F
MARTINSVILLE   CLOUDY    35  13  40 NW9G17    29.66F
ROANOKE        CLOUDY    33  16  49 W12       29.64F WCI  24
BLACKSBURG     CLOUDY    27  18  70 W9        29.63F
DUBLIN*        CLOUDY    28  18  65 W10G17    29.62F WCI  18
MARION*        LGT SNOW  24  15  69 W23G31    29.61F WCI   9
HILLSVILLE*    CLOUDY    23  18  81 NW16      29.56F WCI   9
RICHLANDS*     CLOUDY    20  11  69 NW7       29.63F
WISE*          LGT SNOW  21  10  63 W7        29.66S
ABINGDON*      LGT SNOW  24  13  62 W12G18    29.69S WCI  13
$$

MDZ021>025-VAZ099-100-091900-
SOUTHERN MARYLAND AND THE DELMARVA PENINSULA

CITY           SKY/WX    TMP DP  RH WIND       PRES   REMARKS
PATUXENT RIVER CLOUDY    41  38  89 SE9       29.54F
BAY BRIDGE APT LGT RAIN  36  36 100 CALM      29.55F
LEONARDTOWN    CLOUDY    41  36  81 SW7       29.55F
DOVER          CLOUDY    39  39 100 E6        29.53F
GEORGETOWN     CLOUDY    40  36  86 VRB7      29.54F
EASTON         LGT RAIN  37  37 100 E5        29.57F FOG
CAMBRIDGE      CLOUDY    39  36  87 SE7       29.53F
SALISBURY      LGT RAIN  41  38  89 E6        29.53F
OCEAN CITY     CLOUDY    41  36  82 E8        29.54F
WALLOPS ISLAND RAIN      41  38  89 E6        29.55F
ACCOMACK*      PTSUNNY   43  36  75 W8        29.55F
$$

NCZ012>017-030>032-091900-
NORTH CENTRAL AND EASTERN NORTH CAROLINA

CITY           SKY/WX    TMP DP  RH WIND       PRES   REMARKS
ROANOKE RAPIDS CLOUDY    45  30  57 SW15      29.60F
RALEIGH        PTSUNNY   42  26  53 SW13      29.63F
ELIZABETH CITY MOSUNNY   48  30  49 W15G23    29.58F
AHOSKIE*       MOSUNNY   47  30  51 SW3       29.60F
EDENTON*       CLOUDY    48  31  50 W12G17    29.61F
CURRITUCK*     MOSUNNY  N/A N/A N/A W12G21    29.59F
KILL DEVIL HLS SUNNY     48  31  52 W9G21     29.58F
MANTEO         MOSUNNY   47  31  54 NW10G17   29.60F
CAPE HATTERAS  SUNNY     48  31  51 W12G28    29.63F
TARBORO*       CLOUDY    48  31  52 SW10G17   29.62F
GOLDSBORO      MOSUNNY   45  36  70 W17       29.61F
WASHINGTON     PTSUNNY   46  32  58 SW12      29.63F
GREENVILLE     CLOUDY    46  32  57 W8        29.65F
NEW BERN       PTSUNNY   46  34  62 W9        29.64F
WILMINGTON     MOSUNNY   48  26  42 SW21      29.68F
$$

VAZ048-091900-
ELSEWHERE

CITY           SKY/WX    TMP DP  RH WIND       PRES   REMARKS
HARRISBURG PA  SNOW      31  29  92 CALM      29.55F VSB 1/2
BALTIMORE      LGT SNOW  34  33  96 CALM      29.54F FOG
ANNAPOLIS      LGT RAIN  36  35  96 CALM      29.54F FOG
ANDREWS AFB    PTSUNNY   37  36  93 NW10      29.53F
PHILADELPHIA   FLURRIES  36  29  75 NE8       29.56F
HENDERSON NC   PTSUNNY   41  22  47 W9        29.61F
GREENSBORO     CLOUDY    37  15  40 W10       29.62F
ROCKY MOUNT    CLOUDY    45  31  58 W12       29.62F
$$

VAZ100-091900-
MARINE

STATION/POSITION TIME  TEMP    WIND        PRES    WAVE   SWELL
                       AIR SEA DIR/SP/G            HT/PER HT/PER
                 (UTC) (F)     (DEG/KT/KT) (MB)    (FT/S) (FT/S)
BRANDYWINE LGT   1700   39      80/ 10/ 12 1000.9F
CAPE MAY NJ      1700   40 42   60/  6/ 11 1000.5F
LEWES DE         1700   40 41   90/ 12/ 14 1000.6F
15NM E FENWICK I 1750   41 43              1000.0F   8/15
OCEAN-CITY-INLET 1700   41 41   70/  5/  7  999.8F
WACHAPREAGUE VA  1700   42 43   CALM  /  2 1001.3S
GOOSES REEF MD   1800   37 40  190/  8/ 12 1001.3F   1
COVE POINT MD    1700   38     180/  8/ 10 1001.4F
SOLOMONS ISLAND  1700   39 41  140/  8/  9   N/A
BISHOPS HEAD MD  1700   40 41  110/  4/  4 1000.1F
PINEY POINT MD   1700          280/  1/  2   N/A
POTOMAC MD       1800   38 41  220/  6/  6  999.4F   0
CAMBRIDGE MD     1700   40 40  110/  6/  7 1000.0F
LEWISETTA VA     1700   40 42  150/  5/  6 1000.7F
RAPPAHANNOCK LGT 1700          210/  6/  6 1001.6F
STINGRAY PT      1800   43 42  230/  8/ 12 1000.2F   1
YORK RVR RNG VA  1700   42     260/  8/  9 1000.9F
YORKTOWN VA      1700   43 43  250/  8/ 13 1001.2F
JAMESTOWN VA     1800   43 44  300/ 10/ 12   N/A     0
DOMINION TERM VA 1700   44     270/ 11/ 14 1001.7F
KIPTOPEKE VA     1700      43  290/  9/ 11   N/A
CHES BAY BRIDGE  1700   41 44  260/ 11/ 12 1001.4F
CAPE HENRY VA    1700   42     290/ 10/ 14   N/A
WILLOUBY STN VA  1718   43     240/  7/ 13   N/A
CAPE HENRY BUOY  1728      45                N/A     5/14   3/14
1ST LANDING BUOY 1800      44                N/A     3/ 6
CAPE CHARLES BUO 1726      44                N/A     6/15   5/15
OFFSHORE WE BUOY 1721      46                N/A     7/14   5/14
64NM E OF VA BCH 1750   44 51  290/ 17/ 21 1000.8F  10/15   8/15
DUCK PIER NC     1700   44     260/ 13/ 18 1002.1S
44100 DUCK FRF   1724      47                N/A     9/14   8/14
44056 DUCK FRF   1711      45                N/A     7/15   7/15
OREGON INLET NC  1700   46 45  260/  9/ 13 1002.8F
HATTERAS NC      1700   44 52  270/ 21/ 25 1003.4F
DIAMOND SHLS NC  1750   47 73  280/ 19/ 25 1003.4F  13/15  11/15
$$




USA.gov is the U.S. government's official web portal to all federal, state and local government web resources and services.